Wind_Speed
39 39 39 38 37 40 41 41 40 39 37 37 36 33 30 29 29 28 26 25 23 22 22 23 24 25 25 24 22 20 18 16 16 15 15 17 18 17 15 13 13 15 14
42 43 40 37 37 41 45 42 40 40 37 41 42 36 30 29 31 32 29 28 29 28 27 27 27 29 28 29 28 26 25 23 20 19 17 16 17 19 19 17 17 17 16
41 43 34 33 34 40 40 36 37 39 36 41 45 39 27 26 30 32 32 31 32 31 30 31 30 32 32 32 33 32 30 29 25 23 22 20 18 19 21 21 21 20 17
35 33 29 33 38 44 42 39 38 40 39 43 41 28 22 25 31 31 31 31 31 31 32 33 32 32 35 35 37 38 37 33 31 27 24 22 21 21 21 23 24 21 19
36 36 35 34 37 41 43 45 44 43 42 39 33 23 22 25 29 31 29 30 33 34 34 33 32 32 33 36 38 40 42 37 35 32 27 24 22 21 22 22 23 22 19
37 37 38 38 40 41 41 42 43 41 38 34 32 29 29 29 28 29 28 29 32 33 32 31 32 32 32 33 36 40 42 42 39 37 32 27 25 23 24 24 22 21 19
36 36 36 36 37 36 35 35 36 37 36 36 35 33 33 31 28 28 28 29 30 30 29 30 32 33 32 32 33 38 41 43 42 40 36 31 27 26 25 25 23 22 22
36 35 35 34 33 33 32 33 33 33 34 34 35 32 30 27 25 27 28 28 29 30 30 31 33 34 34 34 36 38 40 42 43 43 40 35 29 27 25 26 24 23 24
39 38 39 38 37 36 34 33 33 33 32 32 33 33 32 29 30 30 31 32 33 32 32 34 32 32 32 34 37 40 42 42 42 43 42 38 34 29 27 26 27 26 27
39 41 41 41 40 39 37 35 34 34 33 31 32 34 36 33 31 32 35 35 33 32 31 30 31 31 32 31 33 34 38 40 41 42 43 41 37 32 28 24 27 29 29
37 38 41 43 42 40 38 36 36 35 33 31 32 34 36 36 36 37 33 32 33 32 31 32 33 32 32 31 32 32 33 38 36 37 40 38 36 33 28 25 25 28 29
37 38 39 41 42 41 40 38 37 35 34 34 33 35 37 38 37 36 33 30 31 32 30 29 30 32 29 31 29 31 30 36 31 31 35 34 34 31 25 25 27 28 29
37 38 37 38 40 41 40 40 39 38 36 36 35 36 37 37 35 33 32 31 31 30 28 28 28 29 30 31 32 29 31 34 32 32 30 32 32 30 28 28 31 30 30
36 35 35 35 37 39 39 39 39 40 39 39 38 38 39 38 36 34 34 32 31 29 28 26 26 24 22 21 22 24 30 31 32 29 28 30 30 31 30 31 33 34 33
37 35 33 33 34 36 38 39 39 39 40 40 40 40 39 37 37 36 31 29 29 26 23 22 25 24 19 19 22 22 28 35 35 35 33 32 31 32 33 35 35 36 37
35 36 34 34 34 33 35 37 37 38 38 39 40 41 39 37 38 34 31 29 26 21 18 19 19 20 18 20 22 23 25 24 27 31 35 36 34 31 31 35 36 37 38
34 36 35 34 33 34 33 33 33 34 35 36 38 38 37 35 34 32 29 29 28 24 21 17 17 19 18 21 24 22 22 20 19 20 23 23 22 28 32 33 34 36 38
34 34 33 32 31 30 29 28 29 30 31 32 31 31 29 28 30 29 29 29 27 26 23 23 20 21 22 24 22 21 22 23 22 24 24 25 29 31 33 34 36 37 38
35 31 31 30 28 27 24 23 24 24 24 26 25 25 24 25 25 24 26 23 22 20 19 21 23 20 18 17 17 18 18 18 20 22 22 24 26 28 30 32 34 36 38
37 31 29 29 29 28 24 22 21 19 20 21 23 22 23 24 18 22 20 17 19 15 16 18 16 13 14 14 15 15 17 21 24 25 25 26 26 27 27 29 32 34 36
37 33 27 28 27 26 21 20 19 16 16 21 23 21 25 26 21 15 15 14 12 10 11 14 15 13 14 14 15 16 17 18 20 22 24 26 27 28 30 31 33 34 36
37 34 28 28 25 24 21 20 18 15 17 21 20 20 21 21 23 19 15 11 11 14 16 16 14 13 13 14 14 14 15 16 18 22 25 27 28 29 31 33 36 38 40
38 35 30 28 25 24 21 20 19 13 15 18 21 21 20 19 18 16 12 12 13 14 14 14 13 11 10 10 11 13 15 17 18 20 22 25 27 29 31 33 36 37 40
40 36 30 28 27 26 22 21 22 16 15 18 19 18 17 16 16 13 11 13 14 14 12 11 10 8 8 9 10 11 13 15 18 21 24 27 29 29 32 34 37 39 42
43 39 32 30 28 26 23 22 22 18 19 21 19 16 15 15 15 14 14 14 13 12 12 11 9 9 8 9 10 12 14 15 18 21 23 25 26 27 28 30 33 36 39
44 41 35 31 30 28 25 24 22 20 22 22 21 17 16 16 15 14 14 13 13 14 13 11 11 9 9 9 9 11 12 13 14 15 17 19 19 20 21 24 27 30 31
Wind_Direction
279 278 278 278 274 269 264 263 264 264 265 265 264 261 263 261 260 263 264 262 263 262 260 263 259 257 259 260 260 261 267 274 282 282 271 261 259 262 262 265 274 276 270
279 275 272 273 274 272 267 257 256 258 261 263 261 255 251 262 268 270 269 266 270 274 266 265 271 261 257 259 259 257 259 265 272 278 277 268 260 259 256 254 256 262 269
283 282 284 280 281 284 288 287 277 277 272 272 267 259 250 261 272 273 274 274 273 276 273 270 275 264 257 257 257 256 255 256 262 270 272 271 265 260 257 254 252 255 260
282 282 280 280 281 282 289 294 291 288 280 279 269 258 260 269 267 268 273 276 278 277 277 277 274 267 260 258 258 254 252 250 252 258 264 267 265 262 260 257 254 254 256
282 284 282 279 279 281 286 289 290 288 288 284 283 280 276 277 265 265 271 274 276 275 274 276 271 266 264 262 260 255 253 251 248 250 254 259 261 256 256 258 256 251 249
284 282 282 279 277 277 280 282 285 286 287 284 284 282 276 275 272 267 267 270 273 272 273 275 269 262 262 263 263 258 253 252 248 245 247 253 257 253 249 251 252 251 244
285 281 280 281 280 279 280 281 283 281 280 276 274 276 275 273 270 266 264 266 268 270 271 270 266 260 259 261 264 263 255 250 248 245 245 249 254 253 248 248 250 247 245
287 284 282 280 279 279 282 285 285 281 277 275 273 272 273 276 272 265 262 263 269 272 267 264 264 260 260 261 263 260 255 247 245 244 244 245 248 249 247 247 243 244 246
285 282 280 279 279 279 279 280 280 278 275 273 272 270 273 276 268 265 261 264 272 276 270 265 263 260 260 262 262 259 253 246 243 241 241 242 244 245 245 246 244 242 244
289 282 278 276 276 276 276 276 278 277 276 275 271 271 274 277 276 270 266 268 270 276 277 267 270 266 261 264 263 261 256 243 239 238 240 241 242 240 244 251 252 248 245
299 290 282 276 274 275 276 275 278 278 276 276 275 273 273 273 272 274 270 266 270 273 271 269 267 260 259 258 261 256 253 244 234 234 237 238 238 234 240 251 253 247 244
307 297 286 279 274 273 273 274 275 277 277 273 273 274 272 272 271 269 267 262 267 269 267 264 262 258 254 249 254 257 252 243 232 231 231 229 229 234 245 254 250 246 242
312 303 294 282 275 273 274 274 274 274 273 271 270 270 268 269 269 267 267 266 265 264 261 259 253 248 246 249 259 252 242 237 235 230 226 226 231 240 249 252 246 244 240
321 309 299 286 275 271 273 274 273 271 270 268 266 265 266 267 267 264 264 266 265 262 263 253 236 233 239 244 240 249 248 238 239 230 228 232 237 242 247 244 242 240 239
329 319 305 295 285 275 272 272 272 269 267 265 263 264 267 266 265 264 262 263 262 258 257 245 230 233 237 254 246 258 258 249 244 236 232 234 239 242 241 239 238 238 239
328 327 313 300 295 289 280 274 271 268 265 263 262 263 263 264 266 262 259 253 247 240 238 228 233 236 239 236 251 263 273 273 265 253 243 239 237 237 239 242 240 242 243
325 329 321 305 300 298 290 283 277 270 266 265 265 264 264 264 263 260 250 240 225 225 226 229 233 231 245 256 267 273 271 263 250 249 251 256 245 243 243 243 242 242 244
317 325 325 312 308 303 296 290 281 272 269 269 270 270 262 258 256 248 238 229 219 220 227 242 252 253 262 268 265 258 254 251 249 249 246 249 250 250 249 248 247 248 248
310 318 322 315 314 310 304 295 290 279 271 261 259 259 262 255 236 227 216 219 227 225 238 255 262 256 256 256 249 243 244 249 257 258 257 258 257 256 256 256 253 251 252
306 310 313 311 309 311 310 306 306 291 265 251 255 259 259 252 228 218 225 225 239 243 260 253 239 225 230 232 238 252 258 257 258 260 266 267 268 266 263 260 258 258 258
297 302 305 302 304 307 304 297 302 282 256 246 241 249 249 245 239 224 222 234 234 217 211 210 214 225 237 247 253 257 261 262 266 271 273 272 272 272 271 270 269 268 266
287 294 298 296 297 300 302 292 298 273 255 253 256 246 238 235 241 222 214 208 198 199 200 210 223 235 245 252 257 267 277 281 280 279 277 275 274 274 273 272 271 271 270
279 284 289 287 289 290 295 289 289 282 262 263 258 243 239 245 249 228 202 194 203 209 208 218 227 233 242 259 275 281 282 281 278 275 274 275 275 275 275 274 272 271 270
269 275 278 277 280 282 284 284 278 278 274 257 248 247 249 238 229 217 207 207 207 204 203 209 222 235 251 266 273 278 282 287 289 288 286 284 282 280 278 278 278 277 275
257 263 268 268 272 273 274 277 277 265 262 250 243 240 237 231 230 233 224 210 199 201 203 208 222 236 245 260 271 277 282 287 289 291 290 289 288 285 283 283 283 282 280
248 253 259 260 263 265 263 266 272 263 253 247 242 236 231 231 227 217 210 207 208 210 210 214 223 231 242 256 270 280 292 300 302 303 302 303 302 298 296 294 293 291 288
Height
5876 5873 5872 5870 5869 5864 5860 5860 5859 5858 5860 5860 5860 5861 5862 5864 5864 5865 5865 5866 5866 5866 5866 5866 5866 5867 5866 5865 5865 5867 5868 5869 5871 5871 5872 5872 5872 5874 5876 5878 5879 5879 5880
5866 5863 5861 5860 5858 5854 5849 5846 5845 5845 5848 5850 5850 5851 5852 5854 5856 5857 5858 5859 5859 5859 5860 5860 5860 5860 5861 5862 5862 5862 5863 5864 5866 5867 5868 5868 5867 5868 5870 5873 5874 5875 5876
5857 5854 5853 5852 5849 5848 5846 5845 5842 5842 5841 5841 5842 5843 5843 5845 5849 5850 5850 5851 5852 5851 5851 5852 5854 5853 5855 5855 5856 5857 5857 5859 5859 5860 5861 5862 5862 5863 5864 5866 5868 5869 5872
5848 5847 5847 5845 5842 5837 5836 5836 5835 5837 5835 5834 5834 5834 5834 5837 5840 5841 5841 5842 5842 5843 5843 5843 5845 5845 5846 5848 5849 5850 5850 5851 5853 5853 5854 5856 5857 5857 5858 5860 5862 5864 5867
5840 5840 5840 5838 5835 5831 5828 5827 5826 5826 5825 5825 5825 5825 5827 5830 5831 5832 5833 5833 5833 5833 5834 5834 5834 5835 5837 5839 5840 5842 5844 5845 5846 5847 5848 5849 5850 5851 5852 5853 5855 5858 5861
5831 5830 5830 5828 5827 5825 5824 5823 5820 5819 5818 5817 5817 5817 5820 5822 5824 5824 5824 5824 5824 5824 5825 5825 5825 5826 5827 5829 5831 5831 5834 5837 5838 5840 5841 5843 5844 5845 5845 5847 5848 5851 5854
5820 5820 5819 5817 5816 5815 5815 5815 5814 5813 5811 5811 5810 5811 5812 5812 5815 5815 5814 5814 5814 5815 5816 5817 5817 5817 5817 5819 5821 5821 5822 5825 5828 5831 5834 5836 5837 5838 5839 5840 5842 5844 5847
5811 5809 5808 5807 5806 5806 5805 5803 5802 5802 5802 5801 5799 5800 5802 5805 5806 5805 5804 5805 5805 5805 5807 5808 5808 5807 5807 5809 5810 5811 5811 5813 5817 5821 5825 5828 5830 5831 5833 5833 5835 5838 5840
5801 5799 5797 5797 5797 5795 5794 5793 5792 5791 5792 5792 5790 5790 5792 5795 5796 5796 5796 5796 5796 5796 5796 5797 5797 5797 5798 5799 5799 5799 5800 5801 5805 5809 5814 5818 5821 5823 5825 5827 5828 5829 5832
5793 5790 5788 5787 5787 5786 5785 5784 5783 5783 5782 5782 5782 5781 5781 5785 5786 5786 5787 5787 5786 5786 5786 5786 5787 5789 5789 5789 5787 5787 5788 5790 5793 5798 5804 5808 5812 5815 5817 5819 5821 5823 5824
5783 5779 5776 5775 5775 5774 5774 5774 5774 5773 5773 5772 5772 5772 5772 5773 5775 5776 5777 5776 5776 5776 5777 5776 5776 5778 5779 5778 5777 5778 5780 5781 5783 5788 5794 5799 5802 5805 5808 5810 5812 5815 5817
5772 5768 5764 5763 5763 5762 5762 5762 5763 5763 5762 5762 5762 5762 5762 5762 5763 5763 5765 5766 5766 5766 5767 5767 5767 5768 5770 5769 5769 5770 5771 5773 5776 5780 5785 5789 5793 5797 5799 5802 5804 5807 5809
5764 5757 5753 5752 5751 5750 5750 5750 5751 5752 5752 5752 5751 5751 5750 5751 5751 5751 5753 5755 5755 5756 5758 5758 5759 5760 5761 5761 5761 5762 5761 5764 5767 5772 5777 5781 5785 5789 5791 5794 5796 5798 5801
5756 5750 5745 5742 5741 5740 5739 5738 5739 5739 5740 5741 5741 5740 5740 5739 5740 5740 5742 5743 5745 5747 5749 5749 5751 5752 5752 5754 5753 5754 5754 5756 5759 5764 5770 5774 5777 5780 5783 5785 5788 5790 5791
5750 5743 5738 5735 5732 5731 5730 5729 5728 5727 5728 5729 5729 5728 5728 5728 5728 5729 5731 5733 5735 5737 5739 5741 5743 5744 5745 5747 5748 5748 5749 5750 5753 5756 5760 5765 5768 5772 5774 5777 5779 5781 5783
5742 5736 5731 5727 5723 5722 5720 5719 5718 5717 5717 5717 5717 5717 5716 5716 5716 5717 5720 5723 5726 5730 5734 5735 5736 5738 5739 5742 5743 5744 5744 5746 5748 5751 5754 5756 5759 5762 5765 5768 5770 5772 5775
5736 5730 5723 5719 5715 5712 5710 5709 5707 5706 5706 5706 5706 5705 5704 5704 5704 5707 5710 5713 5717 5723 5727 5730 5731 5732 5733 5736 5736 5736 5737 5740 5743 5745 5747 5750 5753 5756 5758 5760 5762 5764 5766
5730 5724 5718 5714 5710 5705 5702 5700 5697 5696 5695 5696 5696 5694 5694 5695 5697 5700 5701 5705 5710 5715 5720 5723 5726 5727 5729 5730 5730 5731 5733 5735 5737 5739 5740 5743 5746 5748 5750 5752 5754 5755 5757
5720 5716 5711 5708 5705 5701 5697 5694 5690 5688 5688 5689 5689 5689 5689 5691 5691 5692 5693 5699 5703 5708 5713 5718 5720 5721 5722 5723 5725 5726 5729 5731 5732 5734 5734 5736 5738 5740 5741 5743 5744 5745 5746
5711 5708 5705 5702 5700 5695 5692 5689 5683 5682 5683 5684 5683 5685 5686 5687 5688 5691 5693 5697 5701 5705 5709 5712 5714 5715 5717 5719 5721 5723 5724 5726 5728 5729 5729 5730 5731 5732 5733 5734 5734 5735 5736
5704 5701 5699 5696 5693 5690 5687 5686 5682 5679 5679 5681 5680 5680 5681 5684 5686 5688 5690 5695 5698 5700 5704 5707 5709 5711 5713 5715 5717 5718 5719 5720 5721 5722 5723 5724 5725 5725 5724 5725 5725 5726 5726
5696 5693 5692 5690 5688 5685 5682 5682 5679 5676 5676 5677 5679 5679 5679 5680 5683 5684 5686 5690 5694 5697 5699 5703 5705 5707 5709 5712 5714 5714 5715 5715 5715 5717 5717 5717 5717 5717 5716 5716 5716 5716 5715
5686 5685 5684 5682 5681 5680 5677 5676 5676 5673 5672 5672 5673 5676 5676 5678 5680 5680 5683 5687 5691 5694 5696 5698 5701 5704 5706 5708 5709 5710 5711 5711 5711 5711 5711 5710 5709 5709 5707 5705 5704 5703 5702
5675 5674 5675 5674 5674 5674 5672 5671 5672 5670 5670 5670 5670 5671 5673 5673 5675 5677 5680 5684 5688 5691 5693 5695 5698 5701 5702 5704 5706 5707 5706 5705 5703 5703 5702 5702 5700 5699 5696 5693 5692 5690 5688
5661 5662 5664 5665 5666 5666 5664 5664 5665 5665 5666 5666 5666 5667 5668 5670 5672 5675 5679 5682 5684 5688 5691 5693 5695 5697 5699 5701 5702 5702 5701 5701 5700 5697 5695 5692 5689 5687 5685 5682 5680 5677 5675
5645 5649 5653 5655 5656 5657 5656 5658 5659 5659 5659 5659 5660 5662 5665 5666 5668 5671 5676 5679 5682 5686 5688 5690 5692 5695 5696 5698 5697 5697 5696 5696 5694 5691 5688 5685 5682 5678 5676 5673 5670 5666 5664